{"data":{"norad_id":58539,"intl_designator":"2023-192J","name":"STARLINK-31055","alt_names":[],"object_type":"PAYLOAD","status":"ACTIVE","operator":null,"country":"US","launch_date":"2023-12-08","launch_site_code":"AFWTR","launch_vehicle":null,"mission":null,"orbit_class":"UNKNOWN","rcs_meters":null,"size_class":null,"mass_kg":null,"dimensions":null,"purposes":["comms"],"wikipedia_slug":null,"has_3d_model":false,"image_url":null,"decayed_at":null,"tle_current":{"epoch":"2026-05-25T03:46:26.432832Z","epoch_age_seconds":72191,"freshness":"FRESH","line1":"1 58539U 23192J   26145.15725038  .00001306  00000+0  49789-4 0  9996","line2":"2 58539  53.1613  66.7943 0000973  97.6693 262.4420 15.34394763137708","mean_motion":15.34394763,"eccentricity":9.73e-5,"inclination_deg":53.1613,"raan_deg":66.7943,"arg_perigee_deg":97.6693,"mean_anomaly_deg":262.442,"bstar":4.9789e-5,"rev_number":13770,"period_min":93.848078390502,"perigee_km":462.05319044913,"apogee_km":463.38442098892,"semimajor_km":6840.855805719,"source":"CELESTRAK","updated_at":"2026-05-25T13:38:18.661803Z"}}}